• In Hungary
  • List of Countries
  • For 7 days
  • Water Temperature
  • Satellite Maps
  • Weather Map
  • News
  • Weather Widgets
  • user-avatar
    Login

    Hourly Weather Yola

    Today, 21 September, Friday

    Time Temperature Precipitation Wind Pressure Humidity
    00:00 +32°C° 0 mm 2 mps 738 mmHg 47%
    01:00 +32°C° 0 mm 2 mps 737 mmHg 51%
    02:00 +31°C° 0 mm 2 mps 737 mmHg 54%
    03:00 +30°C° 0 mm 2 mps 737 mmHg 57%
    04:00 +30°C° 0 mm 2 mps 737 mmHg 59%
    05:00 +30°C° 0 mm 2 mps 737 mmHg 61%
    06:00 +30°C° 0 mm 2 mps 738 mmHg 62%
    07:00 +32°C° 0 mm 2 mps 738 mmHg 56%
    08:00 +34°C° 0 mm 2 mps 738 mmHg 50%
    09:00 +36°C° 0 mm 2 mps 739 mmHg 44%
    10:00 +38°C° 0 mm 2 mps 738 mmHg 39%
    11:00 +39°C° 0 mm 2 mps 738 mmHg 34%
    12:00 +39°C° 0 mm 2 mps 738 mmHg 33%
    13:00 +40°C° 0 mm 2 mps 737 mmHg 31%
    14:00 +42°C° 0 mm 3 mps 736 mmHg 28%
    15:00 +42°C° 0 mm 4 mps 736 mmHg 26%
    16:00 +41°C° 0 mm 4 mps 736 mmHg 29%
    17:00 +39°C° 0 mm 3 mps 736 mmHg 31%
    18:00 +37°C° 0 mm 2 mps 736 mmHg 34%
    19:00 +37°C° 0 mm 2 mps 737 mmHg 36%
    20:00 +36°C° 0 mm 2 mps 737 mmHg 37%
    21:00 +35°C° 0 mm 2 mps 738 mmHg 39%
    22:00 +35°C° 0 mm 3 mps 738 mmHg 43%
    23:00 +34°C° 0 mm 3 mps 737 mmHg 46%

    Tomorrow, 22 September, Saturday

    Time Temperature Precipitation Wind Pressure Humidity
    00:00 +33°C° 0 mm 3 mps 737 mmHg 50%
    01:00 +33°C° 0 mm 4 mps 737 mmHg 54%
    02:00 +32°C° 0 mm 4 mps 737 mmHg 59%
    03:00 +30°C° 0 mm 4 mps 737 mmHg 63%
    04:00 +30°C° 0 mm 4 mps 737 mmHg 67%
    05:00 +29°C° 0 mm 4 mps 737 mmHg 70%
    06:00 +29°C° 0 mm 4 mps 738 mmHg 73%
    07:00 +30°C° 0 mm 4 mps 738 mmHg 67%
    08:00 +33°C° 0 mm 5 mps 739 mmHg 60%
    09:00 +35°C° 0 mm 5 mps 740 mmHg 54%
    10:00 +36°C° 0 mm 4 mps 739 mmHg 50%
    11:00 +37°C° 0 mm 4 mps 739 mmHg 45%
    12:00 +39°C° 0 mm 3 mps 738 mmHg 41%
    13:00 +39°C° 0 mm 3 mps 738 mmHg 38%
    14:00 +40°C° 0 mm 2 mps 737 mmHg 36%
    15:00 +40°C° 0 mm 1 mps 736 mmHg 33%
    16:00 +39°C° 0 mm 1 mps 736 mmHg 35%
    17:00 +37°C° 0 mm 1 mps 736 mmHg 36%
    18:00 +36°C° 0 mm 1 mps 736 mmHg 38%
    19:00 +37°C° 0 mm 2 mps 737 mmHg 41%
    20:00 +36°C° 0 mm 3 mps 737 mmHg 43%
    21:00 +35°C° 0 mm 4 mps 738 mmHg 46%
    22:00 +34°C° 0.9 mm 6 mps 738 mmHg 53%
    23:00 +33°C° 0.9 mm 7 mps 738 mmHg 59%

    Day after tomorrow, 23 September, Sunday

    Time Temperature Precipitation Wind Pressure Humidity
    00:00 +31°C° 0.9 mm 9 mps 738 mmHg 66%
    01:00 +30°C° 0.1 mm 7 mps 738 mmHg 64%
    02:00 +30°C° 0.1 mm 5 mps 737 mmHg 61%
    03:00 +30°C° 0.1 mm 3 mps 737 mmHg 59%
    04:00 +29°C° 0.2 mm 4 mps 737 mmHg 61%
    05:00 +29°C° 0.2 mm 4 mps 738 mmHg 63%
    06:00 +28°C° 0.2 mm 4 mps 738 mmHg 65%
    07:00 +29°C° 0.5 mm 5 mps 739 mmHg 63%
    08:00 +30°C° 0.5 mm 5 mps 740 mmHg 62%
    09:00 +32°C° 0.5 mm 6 mps 741 mmHg 61%
    10:00 +33°C° 0 mm 6 mps 740 mmHg 58%
    11:00 +34°C° 0 mm 6 mps 739 mmHg 55%
    12:00 +35°C° 0 mm 5 mps 738 mmHg 52%
    13:00 +36°C° 0 mm 5 mps 738 mmHg 49%
    14:00 +36°C° 0 mm 5 mps 738 mmHg 47%
    15:00 +37°C° 0 mm 4 mps 737 mmHg 44%
    16:00 +36°C° 0 mm 4 mps 737 mmHg 47%
    17:00 +35°C° 0 mm 3 mps 738 mmHg 49%
    18:00 +34°C° 0 mm 3 mps 738 mmHg 51%
    19:00 +34°C° 0.2 mm 3 mps 738 mmHg 54%
    20:00 +33°C° 0.2 mm 3 mps 739 mmHg 56%
    21:00 +33°C° 0.2 mm 3 mps 739 mmHg 59%
    22:00 +32°C° 0 mm 4 mps 739 mmHg 60%
    23:00 +32°C° 0 mm 4 mps 739 mmHg 61%

    24 September, Monday

    Time Temperature Precipitation Wind Pressure Humidity
    00:00 +30°C° 0 mm 5 mps 738 mmHg 63%
    01:00 +30°C° 0 mm 4 mps 738 mmHg 64%
    02:00 +29°C° 0 mm 4 mps 738 mmHg 66%
    03:00 +29°C° 0 mm 4 mps 738 mmHg 67%
    04:00 +28°C° 0.1 mm 4 mps 738 mmHg 69%
    05:00 +28°C° 0.1 mm 3 mps 738 mmHg 71%
    06:00 +28°C° 0.1 mm 3 mps 739 mmHg 73%
    07:00 +29°C° 0.1 mm 3 mps 739 mmHg 66%
    08:00 +32°C° 0.1 mm 4 mps 740 mmHg 59%
    09:00 +34°C° 0.1 mm 4 mps 740 mmHg 52%
    10:00 +36°C° 0 mm 4 mps 740 mmHg 48%
    11:00 +37°C° 0 mm 4 mps 739 mmHg 44%
    12:00 +38°C° 0 mm 4 mps 739 mmHg 39%
    13:00 +40°C° 0 mm 4 mps 738 mmHg 37%
    14:00 +41°C° 0 mm 4 mps 737 mmHg 35%
    15:00 +40°C° 0 mm 3 mps 736 mmHg 33%
    16:00 +39°C° 0 mm 3 mps 737 mmHg 35%
    17:00 +38°C° 0 mm 3 mps 737 mmHg 37%
    18:00 +37°C° 0 mm 3 mps 737 mmHg 39%
    19:00 +36°C° 0.3 mm 4 mps 737 mmHg 43%
    20:00 +35°C° 0.3 mm 5 mps 738 mmHg 46%
    21:00 +34°C° 0.3 mm 6 mps 738 mmHg 49%
    22:00 +33°C° 0 mm 5 mps 738 mmHg 54%
    23:00 +33°C° 0 mm 5 mps 738 mmHg 59%

    25 September, Tuesday

    Time Temperature Precipitation Wind Pressure Humidity
    00:00 +32°C° 0 mm 5 mps 737 mmHg 64%
    01:00 +30°C° 0 mm 5 mps 737 mmHg 66%
    02:00 +30°C° 0 mm 5 mps 737 mmHg 68%
    03:00 +29°C° 0 mm 4 mps 737 mmHg 70%
    04:00 +29°C° 0 mm 4 mps 737 mmHg 72%
    05:00 +29°C° 0 mm 4 mps 738 mmHg 74%
    06:00 +28°C° 0 mm 3 mps 738 mmHg 75%
    07:00 +30°C° 0 mm 4 mps 739 mmHg 70%
    08:00 +32°C° 0 mm 4 mps 739 mmHg 64%
    09:00 +34°C° 0 mm 4 mps 739 mmHg 58%
    10:00 +35°C° 0 mm 4 mps 739 mmHg 53%
    11:00 +37°C° 0 mm 4 mps 738 mmHg 47%
    12:00 +38°C° 0 mm 3 mps 737 mmHg 42%
    13:00 +39°C° 0 mm 3 mps 737 mmHg 40%
    14:00 +40°C° 0 mm 2 mps 736 mmHg 37%
    15:00 +40°C° 0 mm 1 mps 736 mmHg 34%
    16:00 +39°C° 0 mm 2 mps 736 mmHg 36%
    17:00 +38°C° 0 mm 2 mps 736 mmHg 39%
    18:00 +37°C° 0 mm 3 mps 736 mmHg 41%
    19:00 +36°C° 0 mm 3 mps 737 mmHg 44%
    20:00 +36°C° 0 mm 4 mps 737 mmHg 47%
    21:00 +35°C° 0 mm 5 mps 738 mmHg 51%
    22:00 +34°C° 0.2 mm 5 mps 738 mmHg 56%
    23:00 +33°C° 0.2 mm 5 mps 737 mmHg 62%

    26 September, Wednesday

    Time Temperature Precipitation Wind Pressure Humidity
    00:00 +32°C° 0.2 mm 6 mps 737 mmHg 67%
    01:00 +30°C° 0 mm 5 mps 737 mmHg 68%
    02:00 +30°C° 0 mm 5 mps 737 mmHg 68%
    03:00 +30°C° 0 mm 4 mps 736 mmHg 69%
    04:00 +29°C° 0 mm 3 mps 737 mmHg 70%
    05:00 +29°C° 0 mm 2 mps 737 mmHg 71%
    06:00 +29°C° 0 mm 2 mps 737 mmHg 72%
    07:00 +30°C° 0 mm 2 mps 738 mmHg 66%
    08:00 +31°C° 0 mm 2 mps 739 mmHg 61%
    09:00 +34°C° 0 mm 3 mps 739 mmHg 55%
    10:00 +35°C° 0 mm 3 mps 739 mmHg 51%
    11:00 +36°C° 0 mm 3 mps 738 mmHg 46%
    12:00 +38°C° 0 mm 3 mps 738 mmHg 42%
    13:00 +38°C° 0 mm 2 mps 737 mmHg 40%
    14:00 +39°C° 0 mm 2 mps 736 mmHg 38%
    15:00 +39°C° 0 mm 1 mps 736 mmHg 36%
    16:00 +38°C° 0 mm 2 mps 736 mmHg 39%
    17:00 +38°C° 0 mm 3 mps 736 mmHg 41%
    18:00 +37°C° 0 mm 3 mps 737 mmHg 43%
    19:00 +36°C° 0 mm 3 mps 737 mmHg 46%
    20:00 +35°C° 0 mm 4 mps 737 mmHg 48%
    21:00 +35°C° 0 mm 4 mps 738 mmHg 51%
    22:00 +34°C° 0.3 mm 4 mps 738 mmHg 53%
    23:00 +33°C° 0.3 mm 4 mps 737 mmHg 56%
    Show more